When you browse on this site, cookies collect data to enhance your experience and personalize the content and advertising you see.
Visit our Privacy Policy to learn more. By continuing to use the site, you agree to this use of cookies and data.
  • In Belgien
  • Länderverzeichnis
  • Für 7 Tage
  • Wassertemperatur
  • Satellitenkarten
  • Wetterkarte
  • Widgets
  • user-avatar
    Anmelden

    Stündliche Wetter Dinant

    Heute, 19 Januar, Samstag

    Zeit Temperatur Niederschläge Wind Luftdruck Luftfeuchtigkeit
    00:00 -2°C° 0 mm 2 m/S 749 mmHg 87%
    01:00 -2°C° 0 mm 2 m/S 748 mmHg 87%
    02:00 -2°C° 0 mm 3 m/S 748 mmHg 87%
    03:00 -2°C° 0 mm 3 m/S 748 mmHg 87%
    04:00 -4°C° 0 mm 3 m/S 748 mmHg 87%
    05:00 -4°C° 0 mm 3 m/S 747 mmHg 86%
    06:00 -4°C° 0 mm 3 m/S 747 mmHg 84%
    07:00 -3°C° 0 mm 4 m/S 747 mmHg 80%
    08:00 -3°C° 0 mm 4 m/S 747 mmHg 76%
    09:00 -3°C° 0 mm 4 m/S 747 mmHg 72%
    10:00 -1°C° 0 mm 4 m/S 746 mmHg 67%
    11:00 0°C° 0 mm 4 m/S 746 mmHg 61%
    12:00 0°C° 0 mm 4 m/S 746 mmHg 54%
    13:00 0°C° 0 mm 4 m/S 746 mmHg 55%
    14:00 +1°C° 0 mm 3 m/S 745 mmHg 56%
    15:00 +1°C° 0 mm 3 m/S 745 mmHg 58%
    16:00 0°C° 0 mm 3 m/S 745 mmHg 63%
    17:00 -1°C° 0 mm 3 m/S 745 mmHg 68%
    18:00 -4°C° 0 mm 3 m/S 745 mmHg 72%
    19:00 -4°C° 0 mm 3 m/S 745 mmHg 73%
    20:00 -4°C° 0 mm 3 m/S 745 mmHg 73%
    21:00 -4°C° 0 mm 3 m/S 744 mmHg 74%
    22:00 -4°C° 0 mm 3 m/S 745 mmHg 74%
    23:00 -3°C° 0 mm 2 m/S 745 mmHg 73%

    Morgen, 20 Januar, Sonntag

    Zeit Temperatur Niederschläge Wind Luftdruck Luftfeuchtigkeit
    00:00 -3°C° 0 mm 2 m/S 745 mmHg 73%
    01:00 -4°C° 0 mm 2 m/S 745 mmHg 72%
    02:00 -4°C° 0 mm 2 m/S 744 mmHg 71%
    03:00 -4°C° 0 mm 2 m/S 744 mmHg 70%
    04:00 -4°C° 0 mm 2 m/S 745 mmHg 69%
    05:00 -4°C° 0 mm 2 m/S 745 mmHg 69%
    06:00 -2°C° 0 mm 1 m/S 745 mmHg 68%
    07:00 -1°C° 0 mm 1 m/S 745 mmHg 65%
    08:00 -1°C° 0 mm 1 m/S 746 mmHg 62%
    09:00 0°C° 0 mm 1 m/S 746 mmHg 58%
    10:00 +1°C° 0 mm 1 m/S 747 mmHg 53%
    11:00 +2°C° 0 mm 1 m/S 747 mmHg 49%
    12:00 +2°C° 0 mm 2 m/S 747 mmHg 44%
    13:00 +2°C° 0 mm 2 m/S 747 mmHg 47%
    14:00 +2°C° 0 mm 2 m/S 747 mmHg 50%
    15:00 +2°C° 0 mm 2 m/S 748 mmHg 53%
    16:00 -1°C° 0 mm 2 m/S 748 mmHg 59%
    17:00 -2°C° 0 mm 2 m/S 749 mmHg 64%
    18:00 -3°C° 0 mm 2 m/S 749 mmHg 70%
    19:00 -3°C° 0 mm 2 m/S 750 mmHg 70%
    20:00 -4°C° 0 mm 2 m/S 750 mmHg 71%
    21:00 -2°C° 0 mm 1 m/S 751 mmHg 72%
    22:00 -2°C° 0 mm 1 m/S 751 mmHg 72%
    23:00 -2°C° 0 mm 1 m/S 751 mmHg 71%

    übermorgen, 21 Januar, Montag

    Zeit Temperatur Niederschläge Wind Luftdruck Luftfeuchtigkeit
    00:00 -2°C° 0 mm 1 m/S 752 mmHg 71%
    01:00 -2°C° 0 mm 1 m/S 752 mmHg 70%
    02:00 -2°C° 0 mm 1 m/S 752 mmHg 69%
    03:00 -2°C° 0 mm 1 m/S 752 mmHg 68%
    04:00 -2°C° 0 mm 1 m/S 752 mmHg 66%
    05:00 -2°C° 0 mm 1 m/S 752 mmHg 65%
    06:00 -2°C° 0 mm 1 m/S 753 mmHg 64%
    07:00 -2°C° 0 mm 1 m/S 753 mmHg 59%
    08:00 -2°C° 0 mm 0 m/S 753 mmHg 55%
    09:00 -1°C° 0 mm 0 m/S 753 mmHg 51%
    10:00 0°C° 0 mm 0 m/S 753 mmHg 46%
    11:00 +1°C° 0 mm 0 m/S 753 mmHg 42%
    12:00 +2°C° 0 mm 0 m/S 752 mmHg 37%
    13:00 +2°C° 0 mm 0 m/S 752 mmHg 40%
    14:00 +2°C° 0 mm 0 m/S 752 mmHg 43%
    15:00 +2°C° 0 mm 0 m/S 751 mmHg 46%
    16:00 +1°C° 0 mm 0 m/S 751 mmHg 48%
    17:00 +1°C° 0 mm 1 m/S 751 mmHg 50%
    18:00 -1°C° 0 mm 1 m/S 750 mmHg 52%
    19:00 -3°C° 0 mm 2 m/S 750 mmHg 54%
    20:00 -3°C° 0 mm 2 m/S 749 mmHg 56%
    21:00 -3°C° 0 mm 2 m/S 749 mmHg 58%
    22:00 -4°C° 0 mm 3 m/S 748 mmHg 59%
    23:00 -4°C° 0 mm 3 m/S 748 mmHg 60%

    22 Januar, Dienstag

    Zeit Temperatur Niederschläge Wind Luftdruck Luftfeuchtigkeit
    00:00 -4°C° 0 mm 4 m/S 747 mmHg 60%
    01:00 -4°C° 0 mm 4 m/S 746 mmHg 61%
    02:00 -5°C° 0 mm 5 m/S 745 mmHg 63%
    03:00 -5°C° 0 mm 5 m/S 744 mmHg 64%
    04:00 -5°C° 0 mm 5 m/S 743 mmHg 63%
    05:00 -5°C° 0 mm 6 m/S 742 mmHg 63%
    06:00 -5°C° 0 mm 6 m/S 741 mmHg 62%
    07:00 -5°C° 0 mm 6 m/S 740 mmHg 61%
    08:00 -4°C° 0 mm 7 m/S 740 mmHg 59%
    09:00 -4°C° 0 mm 7 m/S 739 mmHg 57%
    10:00 -3°C° 0.1 mm 6 m/S 739 mmHg 62%
    11:00 -3°C° 0.1 mm 6 m/S 738 mmHg 66%
    12:00 -3°C° 0.1 mm 6 m/S 738 mmHg 71%
    13:00 -2°C° 0.3 mm 5 m/S 737 mmHg 76%
    14:00 -2°C° 0.3 mm 4 m/S 737 mmHg 81%
    15:00 -1°C° 0.3 mm 3 m/S 736 mmHg 86%
    16:00 -2°C° 0.6 mm 2 m/S 736 mmHg 89%
    17:00 -2°C° 0.6 mm 2 m/S 736 mmHg 92%
    18:00 0°C° 0.6 mm 1 m/S 736 mmHg 95%
    19:00 0°C° 0.6 mm 1 m/S 736 mmHg 96%
    20:00 -1°C° 0.6 mm 0 m/S 736 mmHg 96%
    21:00 -1°C° 0.6 mm 0 m/S 736 mmHg 97%
    22:00 0°C° 0.6 mm 1 m/S 736 mmHg 97%
    23:00 0°C° 0.6 mm 1 m/S 735 mmHg 97%

    23 Januar, Mittwoch

    Zeit Temperatur Niederschläge Wind Luftdruck Luftfeuchtigkeit
    00:00 0°C° 0.6 mm 1 m/S 735 mmHg 97%
    01:00 0°C° 0.4 mm 1 m/S 735 mmHg 97%
    02:00 0°C° 0.4 mm 1 m/S 735 mmHg 97%
    03:00 -2°C° 0.4 mm 2 m/S 735 mmHg 98%
    04:00 -2°C° 0.2 mm 2 m/S 735 mmHg 98%
    05:00 -2°C° 0.2 mm 2 m/S 736 mmHg 98%
    06:00 -2°C° 0.2 mm 2 m/S 736 mmHg 98%
    07:00 -2°C° 0 mm 2 m/S 736 mmHg 97%
    08:00 -2°C° 0 mm 2 m/S 737 mmHg 97%
    09:00 -2°C° 0 mm 2 m/S 737 mmHg 97%
    10:00 -1°C° 0 mm 2 m/S 738 mmHg 96%
    11:00 -1°C° 0 mm 2 m/S 738 mmHg 95%
    12:00 -1°C° 0 mm 2 m/S 738 mmHg 94%
    13:00 -1°C° 0 mm 2 m/S 739 mmHg 94%
    14:00 -1°C° 0 mm 2 m/S 739 mmHg 94%
    15:00 -1°C° 0 mm 2 m/S 739 mmHg 94%
    16:00 -2°C° 0 mm 2 m/S 740 mmHg 95%
    17:00 -2°C° 0 mm 2 m/S 740 mmHg 96%
    18:00 0°C° 0 mm 1 m/S 741 mmHg 96%
    19:00 -1°C° 0 mm 1 m/S 741 mmHg 97%
    20:00 -1°C° 0 mm 1 m/S 741 mmHg 97%
    21:00 -1°C° 0 mm 1 m/S 742 mmHg 97%
    22:00 -1°C° 0 mm 1 m/S 742 mmHg 97%
    23:00 -1°C° 0 mm 1 m/S 742 mmHg 97%

    24 Januar, Donnerstag

    Zeit Temperatur Niederschläge Wind Luftdruck Luftfeuchtigkeit
    00:00 -2°C° 0 mm 0 m/S 742 mmHg 97%
    01:00 -1°C° 0 mm 1 m/S 742 mmHg 97%
    02:00 -1°C° 0 mm 1 m/S 742 mmHg 96%
    03:00 -1°C° 0 mm 1 m/S 742 mmHg 96%
    04:00 -2°C° 0 mm 1 m/S 742 mmHg 96%
    05:00 -2°C° 0 mm 1 m/S 742 mmHg 95%
    06:00 -3°C° 0 mm 1 m/S 742 mmHg 95%
    07:00 -3°C° 0 mm 1 m/S 743 mmHg 94%
    08:00 -2°C° 0 mm 1 m/S 743 mmHg 93%
    09:00 -2°C° 0 mm 1 m/S 743 mmHg 93%
    10:00 -1°C° 0 mm 1 m/S 743 mmHg 91%
    11:00 +1°C° 0 mm 1 m/S 744 mmHg 90%
    12:00 +2°C° 0 mm 1 m/S 744 mmHg 89%
    13:00 +2°C° 0 mm 1 m/S 744 mmHg 90%
    14:00 +1°C° 0 mm 1 m/S 744 mmHg 92%
    15:00 +1°C° 0 mm 1 m/S 744 mmHg 93%
    16:00 0°C° 0 mm 1 m/S 745 mmHg 94%
    17:00 -3°C° 0 mm 2 m/S 746 mmHg 95%
    18:00 -4°C° 0 mm 2 m/S 746 mmHg 96%
    19:00 -4°C° 0 mm 2 m/S 747 mmHg 96%
    20:00 -5°C° 0 mm 2 m/S 748 mmHg 96%
    21:00 -5°C° 0 mm 2 m/S 748 mmHg 96%
    22:00 -6°C° 0 mm 2 m/S 749 mmHg 96%
    23:00 -6°C° 0 mm 2 m/S 749 mmHg 96%
    Mehr zeigen